EW8373 Weather Reports


Display with metric or nautical units.
time (UTC)temp
F
wind
direction
speed
MPH
gust
MPH
rain 1hr
in
rain 24hr
in
rain mn
in
humidity
%
barometer
mb
20211023173304 43 5 2.0 3.0 0.00 0.00 0.00 80 1029.3
20211023172804 43 338 2.0 3.0 0.00 0.00 0.00 80 1029.2
20211023172306 43 333 2.0 3.0 0.00 0.00 0.00 79 1029.1
20211023171804 44 331 2.0 3.0 0.00 0.00 0.00 79 1029.1
20211023171304 44 336 3.0 5.0 0.00 0.00 0.00 78 1029.0
20211023170804 44 326 3.0 5.0 0.00 0.00 0.00 78 1029.0
20211023170303 44 336 3.0 6.0 0.00 0.00 0.00 77 1028.9
20211023165805 45 325 5.0 8.0 0.00 0.00 0.00 77 1028.8
20211023165305 45 335 5.0 8.0 0.00 0.00 0.00 77 1028.6
20211023164804 45 311 4.0 6.0 0.00 0.00 0.00 75 1028.6
20211023164304 46 315 4.0 6.0 0.00 0.00 0.00 75 1028.6
20211023163804 46 297 6.0 9.0 0.00 0.00 0.00 74 1028.3
20211023163304 46 304 7.0 9.0 0.00 0.00 0.00 73 1028.2
20211023162804 47 316 5.0 9.0 0.00 0.00 0.00 72 1028.1
20211023162305 47 323 7.0 10.0 0.00 0.00 0.00 71 1028.2
20211023161804 47 314 4.0 8.0 0.00 0.00 0.00 70 1028.0
20211023161304 48 318 5.0 9.0 0.00 0.00 0.00 68 1027.9
20211023160804 49 321 9.0 14.0 0.00 0.00 0.00 64 1027.8
20211023160304 49 284 8.0 14.0 0.00 0.00 0.00 62 1027.6
20211023155803 49 259 8.0 13.0 0.00 0.00 0.00 63 1027.4
20211023155306 49 265 7.0 13.0 0.00 0.00 0.00 62 1027.3
20211023154804 49 241 9.0 14.0 0.00 0.00 0.00 61 1027.2
20211023154305 49 253 9.0 14.0 0.00 0.00 0.00 61 1027.2
20211023153804 49 272 9.0 14.0 0.00 0.00 0.00 61 1027.2
20211023153304 49 271 7.0 14.0 0.00 0.00 0.00 60 1027.1
20211023152803 49 251 8.0 15.0 0.00 0.00 0.00 60 1027.0
20211023152305 49 277 6.0 12.0 0.00 0.00 0.00 60 1027.0
20211023151803 49 267 9.0 14.0 0.00 0.00 0.00 59 1027.0
20211023151303 50 291 9.0 17.0 0.00 0.00 0.00 58 1026.9
20211023150802 50 272 10.0 20.0 0.00 0.00 0.00 58 1026.9
20211023150303 50 267 6.0 14.0 0.00 0.00 0.00 58 1026.9
20211023145804 50 262 11.0 16.0 0.00 0.00 0.00 57 1026.9
20211023145305 50 262 5.0 12.0 0.00 0.00 0.00 58 1026.8
20211023144803 50 301 10.0 16.0 0.00 0.00 0.00 57 1026.9
20211023144303 50 288 10.0 17.0 0.00 0.00 0.00 56 1026.8
20211023143804 50 285 7.0 17.0 0.00 0.00 0.00 58 1026.7
20211023143304 50 263 10.0 15.0 0.00 0.00 0.00 59 1026.6
20211023142803 50 278 6.0 15.0 0.00 0.00 0.00 59 1026.7
20211023142306 50 278 9.0 16.0 0.00 0.00 0.00 58 1026.7
20211023141804 50 282 7.0 15.0 0.00 0.00 0.00 58 1026.6
20211023141303 50 271 8.0 15.0 0.00 0.00 0.00 58 1026.6
20211023140804 50 269 10.0 17.0 0.00 0.00 0.00 58 1026.6
20211023140303 50 292 7.0 13.0 0.00 0.00 0.00 58 1026.5
20211023135803 50 291 7.0 13.0 0.00 0.00 0.00 57 1026.5
20211023135305 50 263 7.0 15.0 0.00 0.00 0.00 56 1026.4
20211023134803 51 294 11.0 16.0 0.00 0.00 0.00 56 1026.4
20211023134303 51 260 9.0 20.0 0.00 0.00 0.00 56 1026.4
20211023133803 51 279 12.0 18.0 0.00 0.00 0.00 56 1026.3
20211023133304 51 282 9.0 13.0 0.00 0.00 0.00 56 1026.3
20211023132805 51 273 8.0 13.0 0.00 0.00 0.00 56 1026.2
20211023132306 50 271 8.0 17.0 0.00 0.00 0.00 56 1026.2
20211023131803 50 288 11.0 15.0 0.00 0.00 0.00 55 1026.2
20211023131304 50 282 10.0 20.0 0.00 0.00 0.00 54 1026.3
20211023130804 51 276 10.0 17.0 0.00 0.00 0.00 55 1026.2
20211023130303 51 301 6.0 20.0 0.00 0.00 0.00 54 1026.2
20211023125803 51 277 9.0 18.0 0.00 0.00 0.00 54 1026.2
20211023125305 51 273 10.0 16.0 0.00 0.00 0.00 52 1026.2
20211023124803 52 278 10.0 20.0 0.00 0.00 0.00 51 1026.2
20211023124304 52 298 10.0 16.0 0.00 0.00 0.00 53 1026.1
20211023123803 51 240 5.0 20.0 0.00 0.00 0.00 54 1026.1
20211023123304 51 278 9.0 17.0 0.00 0.00 0.00 54 1026.1
20211023122803 51 274 10.0 18.0 0.00 0.00 0.00 54 1026.0
20211023122305 51 279 7.0 14.0 0.00 0.00 0.00 55 1026.1
20211023121803 51 269 10.0 17.0 0.00 0.00 0.00 57 1026.1
20211023121304 50 273 7.0 20.0 0.00 0.00 0.00 58 1026.2
20211023120803 50 282 9.0 17.0 0.00 0.00 0.00 60 1026.1
20211023120303 49 311 9.0 14.0 0.00 0.00 0.00 59 1026.1
20211023115804 49 270 9.0 13.0 0.00 0.00 0.00 59 1026.1
20211023115305 49 258 9.0 16.0 0.00 0.00 0.00 59 1026.1
20211023114803 49 262 10.0 16.0 0.00 0.00 0.00 59 1026.2
20211023114303 49 297 7.0 14.0 0.00 0.00 0.00 58 1026.2
20211023113803 50 256 7.0 15.0 0.00 0.00 0.00 59 1026.1
20211023113303 50 290 7.0 12.0 0.00 0.00 0.00 59 1026.1
20211023112803 49 276 7.0 13.0 0.00 0.00 0.00 60 1026.1
20211023112305 49 272 7.0 12.0 0.00 0.00 0.00 60 1026.2
20211023111804 49 294 5.0 14.0 0.00 0.00 0.00 59 1026.2
20211023111303 49 284 7.0 12.0 0.00 0.00 0.00 59 1026.0
20211023110803 49 255 9.0 17.0 0.00 0.00 0.00 59 1026.1
20211023110303 49 270 11.0 18.0 0.00 0.00 0.00 57 1026.0
20211023105803 50 249 11.0 16.0 0.00 0.00 0.00 56 1026.1
20211023105306 51 276 9.0 18.0 0.00 0.00 0.00 55 1025.8
20211023104803 51 278 14.0 22.0 0.00 0.00 0.00 54 1025.9
20211023104304 51 256 11.0 22.0 0.00 0.00 0.00 54 1025.9
20211023103804 51 284 11.0 20.0 0.00 0.00 0.00 57 1025.8
20211023103303 50 260 13.0 22.0 0.00 0.00 0.00 56 1025.8
20211023102804 51 250 10.0 18.0 0.00 0.00 0.00 57 1025.7
20211023102305 50 284 10.0 20.0 0.00 0.00 0.00 59 1025.7
20211023101803 49 271 12.0 20.0 0.00 0.00 0.00 61 1025.9
20211023101303 49 299 9.0 17.0 0.00 0.00 0.00 61 1026.0
20211023100803 49 277 12.0 16.0 0.00 0.00 0.00 62 1025.9
20211023100304 49 257 9.0 20.0 0.00 0.00 0.00 61 1025.9
20211023095805 49 265 5.0 14.0 0.00 0.00 0.00 63 1025.8
20211023095305 49 297 9.0 13.0 0.00 0.00 0.00 63 1025.8
20211023094803 49 251 12.0 17.0 0.00 0.00 0.00 64 1025.7
20211023094304 48 266 8.0 15.0 0.00 0.00 0.00 64 1025.8
20211023093806 48 307 7.0 14.0 0.00 0.00 0.00 64 1025.7
20211023093303 48 291 9.0 15.0 0.00 0.00 0.00 65 1025.7
20211023092803 48 294 6.0 16.0 0.00 0.00 0.00 66 1025.7
20211023092305 49 305 6.0 16.0 0.00 0.00 0.00 64 1025.6
20211023091803 49 282 10.0 20.0 0.00 0.00 0.00 64 1025.5
20211023091304 49 274 11.0 18.0 0.00 0.00 0.00 64 1025.5
20211023090803 49 283 11.0 15.0 0.00 0.00 0.00 65 1025.5
20211023090303 49 282 11.0 20.0 0.00 0.00 0.00 65 1025.5
20211023085804 49 295 7.0 17.0 0.00 0.00 0.00 66 1025.4
20211023085306 49 275 12.0 20.0 0.00 0.00 0.00 67 1025.3
20211023084803 48 271 9.0 16.0 0.00 0.00 0.00 69 1025.3
20211023084304 48 274 12.0 18.0 0.00 0.00 0.00 68 1025.2
20211023083803 48 290 8.0 12.0 0.00 0.00 0.00 69 1025.2
20211023083303 47 287 10.0 20.0 0.00 0.00 0.00 69 1025.2
20211023082803 48 303 10.0 15.0 0.00 0.00 0.00 68 1025.1
20211023082305 48 308 6.0 15.0 0.00 0.00 0.00 70 1025.1
20211023081803 47 283 9.0 12.0 0.00 0.00 0.00 71 1025.0
20211023081304 47 254 8.0 12.0 0.00 0.00 0.00 72 1024.9
20211023080804 47 273 7.0 15.0 0.00 0.00 0.00 72 1025.0
20211023080303 47 270 4.0 17.0 0.00 0.00 0.00 73 1025.0
20211023075804 47 280 5.0 12.0 0.00 0.00 0.00 73 1024.9
20211023075305 46 296 9.0 15.0 0.00 0.00 0.00 73 1024.8
20211023074804 46 267 7.0 12.0 0.00 0.00 0.00 74 1024.7
20211023074304 46 274 9.0 13.0 0.00 0.00 0.00 74 1024.6
20211023073803 46 293 5.0 9.0 0.00 0.00 0.00 74 1024.6
20211023073303 46 278 10.0 15.0 0.00 0.00 0.00 75 1024.7
20211023072804 46 268 9.0 14.0 0.00 0.00 0.00 75 1024.5
20211023072306 45 289 5.0 14.0 0.00 0.00 0.00 76 1024.4
20211023071303 45 289 5.0 10.0 0.00 0.00 0.00 76 1024.3
20211023070803 45 257 5.0 9.0 0.00 0.00 0.00 77 1024.3
20211023070303 44 241 2.0 6.0 0.00 0.00 0.00 77 1024.3
20211023065804 44 277 5.0 9.0 0.00 0.00 0.00 78 1024.2
20211023065303 44 247 2.0 9.0 0.00 0.00 0.00 79 1024.2
20211023064804 43 248 2.0 3.0 0.00 0.00 0.00 79 1024.1
20211023064303 43 237 2.0 3.0 0.00 0.00 0.00 80 1024.2
20211023063804 42 244 1.0 2.0 0.00 0.00 0.00 80 1024.1
20211023063303 42 244 0.0 1.0 0.00 0.00 0.00 80 1024.1
20211023062803 42 244 0.0 1.0 0.00 0.00 0.00 80 1024.0
20211023062305 41 244 0.0 2.0 0.00 0.00 0.00 81 1024.0
20211023061804 41 250 1.0 3.0 0.00 0.00 0.00 82 1023.8
20211023061303 41 274 0.0 1.0 0.00 0.00 0.00 82 1023.8
20211023060803 41 274 0.0 2.0 0.00 0.00 0.00 82 1023.8
20211023060304 41 274 0.0 3.0 0.00 0.00 0.00 82 1023.7
20211023055803 41 274 1.0 3.0 0.00 0.00 0.00 81 1023.6
20211023055305 41 267 2.0 3.0 0.00 0.00 0.00 81 1023.4
20211023054803 41 264 3.0 8.0 0.00 0.00 0.00 80 1023.3
20211023054304 41 275 2.0 3.0 0.00 0.00 0.00 80 1023.2
20211023053803 42 264 3.0 6.0 0.00 0.00 0.00 79 1023.1
20211023053304 42 265 4.0 9.0 0.00 0.00 0.00 78 1022.9
20211023052804 42 266 3.0 9.0 0.00 0.00 0.00 77 1022.8
20211023052307 43 273 5.0 9.0 0.00 0.00 0.00 77 1022.7
20211023051804 43 273 5.0 12.0 0.00 0.00 0.00 77 1022.5
20211023051303 43 271 7.0 10.0 0.00 0.00 0.00 76 1022.5
20211023050803 43 271 7.0 14.0 0.00 0.00 0.00 77 1022.4
20211023050303 43 291 8.0 12.0 0.00 0.00 0.00 77 1022.4
20211023045804 44 286 8.0 12.0 0.00 0.00 0.00 77 1022.4
20211023045306 44 299 6.0 9.0 0.00 0.00 0.00 78 1022.4
20211023044803 44 296 7.0 12.0 0.00 0.00 0.00 77 1022.3
20211023044304 44 267 6.0 10.0 0.00 0.00 0.00 78 1022.3
20211023043803 44 281 6.0 10.0 0.00 0.00 0.00 80 1022.2
20211023043304 44 294 7.0 12.0 0.00 0.00 0.00 81 1022.0
20211023042804 43 293 6.0 12.0 0.00 0.00 0.00 88 1022.0
20211023042306 43 270 2.0 8.0 0.00 0.00 0.00 88 1022.0
20211023041803 42 224 1.0 3.0 0.00 0.00 0.00 87 1021.9
20211023041303 43 224 2.0 6.0 0.00 0.00 0.00 86 1021.8
20211023040803 43 221 5.0 6.0 0.00 0.00 0.00 85 1021.7
20211023040304 44 229 3.0 6.0 0.00 0.00 0.00 84 1021.6
20211023035803 44 221 1.0 5.0 0.00 0.00 0.00 84 1021.5
20211023035305 44 227 2.0 5.0 0.00 0.00 0.00 83 1021.5
20211023034804 45 211 3.0 7.0 0.00 0.00 0.00 81 1021.5
20211023034303 45 208 2.0 5.0 0.00 0.00 0.00 81 1021.3
20211023033804 45 218 4.0 6.0 0.00 0.00 0.00 81 1021.3
20211023033304 45 232 4.0 6.0 0.00 0.00 0.00 81 1021.2
20211023032804 45 242 3.0 5.0 0.00 0.00 0.00 80 1021.1
20211023032305 45 263 3.0 6.0 0.00 0.00 0.00 80 1021.1
20211023031805 45 267 4.0 6.0 0.00 0.00 0.00 79 1021.1
20211023031303 45 267 2.0 6.0 0.00 0.00 0.00 79 1021.1
20211023030805 45 259 2.0 7.0 0.00 0.00 0.00 79 1021.1
20211023030303 45 265 5.0 8.0 0.00 0.00 0.00 79 1021.0
20211023025804 45 267 5.0 8.0 0.00 0.00 0.00 80 1021.1
20211023025306 45 278 5.0 8.0 0.00 0.00 0.00 80 1021.0
20211023024804 45 266 3.0 7.0 0.00 0.00 0.00 80 1020.9
20211023024303 45 256 3.0 7.0 0.00 0.00 0.00 80 1020.8
20211023023804 45 252 3.0 6.0 0.00 0.00 0.00 79 1020.8
20211023023304 46 250 3.0 7.0 0.00 0.00 0.00 79 1020.8
20211023022804 45 270 4.0 7.0 0.00 0.00 0.00 79 1020.8
20211023022306 45 277 4.0 9.0 0.00 0.00 0.00 79 1020.7
20211023021804 45 274 3.0 10.0 0.00 0.00 0.00 80 1020.6
20211023021303 45 257 2.0 6.0 0.00 0.00 0.00 80 1020.6
20211023020803 45 270 4.0 7.0 0.00 0.00 0.00 79 1020.5
20211023020304 45 267 3.0 7.0 0.00 0.00 0.00 79 1020.5
20211023015804 45 278 5.0 8.0 0.00 0.00 0.00 79 1020.6
20211023015305 45 279 4.0 8.0 0.00 0.00 0.00 79 1020.5
20211023014804 45 251 4.0 9.0 0.00 0.00 0.00 78 1020.3
20211023014304 46 254 5.0 10.0 0.00 0.00 0.00 77 1020.3
20211023013803 46 268 9.0 16.0 0.00 0.00 0.00 76 1020.3
20211023013303 46 285 10.0 20.0 0.00 0.00 0.00 74 1020.4
20211023012804 46 290 7.0 12.0 0.00 0.00 0.00 73 1020.2
20211023012305 46 275 5.0 10.0 0.00 0.00 0.00 73 1020.2
20211023011803 46 271 6.0 12.0 0.00 0.00 0.00 72 1020.1
20211023011305 46 266 6.0 12.0 0.00 0.00 0.00 72 1020.1
20211023010803 46 280 8.0 13.0 0.00 0.00 0.00 71 1020.1
20211023010304 46 287 7.0 13.0 0.00 0.00 0.00 71 1020.1
20211023005804 46 279 8.0 14.0 0.00 0.00 0.00 71 1019.9
20211023005307 46 270 7.0 12.0 0.00 0.00 0.00 70 1019.9
20211023004804 46 272 5.0 17.0 0.00 0.00 0.00 69 1019.8
20211023004303 46 276 5.0 13.0 0.00 0.00 0.00 68 1019.8
20211023003804 45 263 7.0 12.0 0.00 0.00 0.00 68 1019.8
20211023003304 45 249 7.0 12.0 0.00 0.00 0.00 68 1019.8
20211023002803 45 225 7.0 12.0 0.00 0.00 0.00 68 1019.7
20211023002305 45 248 6.0 12.0 0.00 0.00 0.00 67 1019.7
20211023001804 45 237 8.0 13.0 0.00 0.00 0.00 66 1019.5
20211023001304 45 236 9.0 15.0 0.00 0.00 0.00 66 1019.6
20211023000804 45 223 10.0 13.0 0.00 0.00 0.00 66 1019.5
20211022235803 45 224 11.0 18.0 0.00 0.00 0.00 65 1019.3
20211022235306 44 234 9.0 13.0 0.00 0.00 0.00 65 1019.3
20211022234804 44 231 9.0 13.0 0.00 0.00 0.00 65 1019.3
20211022234303 44 236 8.0 13.0 0.00 0.00 0.00 66 1019.3
20211022233804 44 231 9.0 12.0 0.00 0.00 0.00 67 1019.2
20211022233304 44 220 6.0 9.0 0.00 0.00 0.00 65 1019.1
20211022232805 44 226 6.0 10.0 0.00 0.00 0.00 64 1019.1
20211022232306 45 221 5.0 12.0 0.00 0.00 0.00 63 1019.1
20211022231803 44 229 7.0 12.0 0.00 0.00 0.00 64 1019.0
20211022231304 44 226 6.0 10.0 0.00 0.00 0.00 64 1018.9
20211022230804 44 228 7.0 12.0 0.00 0.00 0.00 64 1018.9
20211022230303 44 227 7.0 12.0 0.00 0.00 0.00 63 1018.8
20211022225804 45 219 6.0 12.0 0.00 0.00 0.00 63 1018.6
20211022225306 45 222 7.0 12.0 0.00 0.00 0.00 62 1018.6
20211022224803 45 225 7.0 12.0 0.00 0.00 0.00 63 1018.6
20211022224304 44 227 6.0 12.0 0.00 0.00 0.00 63 1018.5
20211022223804 45 225 6.0 10.0 0.00 0.00 0.00 61 1018.5
20211022223304 45 221 8.0 12.0 0.00 0.00 0.00 61 1018.6
20211022222804 45 210 6.0 12.0 0.00 0.00 0.00 61 1018.5
20211022222306 46 224 7.0 10.0 0.00 0.00 0.00 60 1018.5
20211022221804 46 231 6.0 10.0 0.00 0.00 0.00 60 1018.4
20211022221304 46 224 7.0 12.0 0.00 0.00 0.00 59 1018.4
20211022220804 46 224 8.0 13.0 0.00 0.00 0.00 58 1018.4
20211022220304 47 224 10.0 14.0 0.00 0.00 0.00 57 1018.4
20211022215804 47 223 9.0 14.0 0.00 0.00 0.00 57 1018.3
20211022215305 47 215 10.0 15.0 0.00 0.00 0.00 57 1018.2
20211022214804 47 224 7.0 12.0 0.00 0.00 0.00 56 1018.2
20211022214305 47 225 10.0 14.0 0.00 0.00 0.00 55 1018.2
20211022213804 47 230 10.0 14.0 0.00 0.00 0.00 55 1018.2
20211022213303 47 230 12.0 16.0 0.00 0.00 0.00 54 1018.1
20211022212803 48 233 10.0 17.0 0.00 0.00 0.00 54 1018.1
20211022212305 48 237 10.0 17.0 0.00 0.00 0.00 53 1018.1
20211022211803 48 240 12.0 20.0 0.00 0.00 0.00 52 1018.1
20211022211303 48 229 12.0 18.0 0.00 0.00 0.00 52 1018.0
20211022210805 49 238 10.0 17.0 0.00 0.00 0.00 52 1018.0
20211022210304 49 234 12.0 18.0 0.00 0.00 0.00 52 1018.0
20211022205803 49 236 12.0 18.0 0.00 0.00 0.00 52 1018.0
20211022205305 49 244 9.0 16.0 0.00 0.00 0.00 51 1017.9
20211022204804 49 239 12.0 17.0 0.00 0.00 0.00 51 1017.9
20211022204304 49 236 10.0 17.0 0.00 0.00 0.00 52 1017.9
20211022203804 49 240 11.0 15.0 0.00 0.00 0.00 52 1018.0
20211022203304 49 250 8.0 13.0 0.00 0.00 0.00 52 1018.0
20211022202803 49 242 9.0 13.0 0.00 0.00 0.00 52 1018.0
20211022202305 48 247 7.0 14.0 0.00 0.00 0.00 53 1017.8
20211022201804 48 242 10.0 17.0 0.00 0.00 0.00 53 1017.9
20211022201305 48 239 9.0 15.0 0.00 0.00 0.00 54 1017.8
20211022200804 47 241 10.0 18.0 0.00 0.00 0.00 53 1017.8
20211022200306 47 238 10.0 16.0 0.00 0.00 0.00 53 1017.7
20211022195804 47 231 12.0 16.0 0.00 0.00 0.00 54 1017.6
20211022195305 47 234 8.0 15.0 0.00 0.00 0.00 54 1017.6
20211022194803 47 237 9.0 13.0 0.00 0.00 0.00 54 1017.5
20211022194303 47 233 10.0 13.0 0.00 0.00 0.00 53 1017.5
20211022193805 48 241 7.0 13.0 0.00 0.00 0.00 53 1017.5
20211022193303 48 228 10.0 17.0 0.00 0.00 0.00 52 1017.4
20211022192804 48 244 10.0 20.0 0.00 0.00 0.00 53 1017.3
20211022192305 48 236 13.0 20.0 0.00 0.00 0.00 53 1017.2
20211022191804 47 228 13.0 21.0 0.00 0.00 0.00 54 1017.1
20211022191304 47 229 12.0 17.0 0.00 0.00 0.00 55 1017.2
20211022190805 46 229 9.0 14.0 0.00 0.00 0.00 57 1017.2
20211022190304 46 223 9.0 13.0 0.00 0.00 0.00 57 1017.2
20211022185804 46 221 7.0 14.0 0.00 0.00 0.00 58 1017.2
20211022185305 47 223 10.0 15.0 0.00 0.00 0.00 56 1017.3
20211022184803 47 225 11.0 15.0 0.00 0.00 0.00 56 1017.2
20211022184303 46 227 11.0 14.0 0.00 0.00 0.00 57 1017.2
20211022183804 46 235 9.0 16.0 0.00 0.00 0.00 58 1017.2
20211022183304 46 227 6.0 9.0 0.00 0.00 0.00 57 1017.2
20211022182804 46 214 6.0 12.0 0.00 0.00 0.00 58 1017.2
20211022182307 46 216 6.0 8.0 0.00 0.00 0.00 56 1017.1
20211022181804 46 201 5.0 8.0 0.00 0.00 0.00 56 1017.1
20211022181304 46 187 5.0 7.0 0.00 0.00 0.00 56 1017.1
20211022180804 47 216 5.0 7.0 0.00 0.00 0.00 55 1017.0
20211022180303 47 222 5.0 9.0 0.00 0.00 0.00 55 1017.0
20211022175804 47 218 5.0 8.0 0.00 0.00 0.00 54 1016.9
20211022175306 47 208 6.0 10.0 0.00 0.00 0.00 54 1016.9
20211022174804 47 219 6.0 10.0 0.00 0.00 0.00 54 1016.9
20211022174304 47 215 6.0 12.0 0.00 0.00 0.00 54 1016.9